When you browse on this site, cookies collect data to enhance your experience and personalize the content and advertising you see.
Visit our Privacy Policy to learn more. By continuing to use the site, you agree to this use of cookies and data.
  • In Deutschland
  • Länderverzeichnis
  • Für 7 Tage
  • Wassertemperatur
  • Wetterkarte
  • Widgets
  • user-avatar
    Anmelden

    Stündliche Wetter Northampton

    Heute, 15 September, Sonntag

    Zeit Temperatur Niederschläge Wind Luftdruck Luftfeuchtigkeit
    00:00 +12°C° 0 mm 3 m/S 761 mmHg 72%
    01:00 +12°C° 0 mm 3 m/S 760 mmHg 75%
    02:00 +11°C° 0 mm 3 m/S 760 mmHg 77%
    03:00 +11°C° 0 mm 3 m/S 759 mmHg 80%
    04:00 +11°C° 0 mm 3 m/S 759 mmHg 81%
    05:00 +11°C° 0 mm 3 m/S 759 mmHg 82%
    06:00 +11°C° 0 mm 3 m/S 759 mmHg 83%
    07:00 +12°C° 0 mm 3 m/S 759 mmHg 80%
    08:00 +14°C° 0 mm 3 m/S 759 mmHg 76%
    09:00 +17°C° 0 mm 3 m/S 759 mmHg 73%
    10:00 +19°C° 0 mm 3 m/S 759 mmHg 70%
    11:00 +20°C° 0 mm 3 m/S 759 mmHg 68%
    12:00 +22°C° 0 mm 4 m/S 759 mmHg 65%
    13:00 +22°C° 0 mm 4 m/S 758 mmHg 66%
    14:00 +22°C° 0 mm 4 m/S 758 mmHg 67%
    15:00 +23°C° 0 mm 4 m/S 758 mmHg 67%
    16:00 +21°C° 0 mm 4 m/S 758 mmHg 72%
    17:00 +20°C° 0 mm 3 m/S 757 mmHg 77%
    18:00 +19°C° 0 mm 3 m/S 757 mmHg 82%
    19:00 +18°C° 0 mm 3 m/S 757 mmHg 85%
    20:00 +17°C° 0 mm 3 m/S 757 mmHg 88%
    21:00 +17°C° 0 mm 2 m/S 757 mmHg 91%
    22:00 +17°C° 0.1 mm 3 m/S 757 mmHg 91%
    23:00 +17°C° 0.1 mm 3 m/S 757 mmHg 91%

    Morgen, 16 September, Montag

    Zeit Temperatur Niederschläge Wind Luftdruck Luftfeuchtigkeit
    00:00 +17°C° 0.1 mm 3 m/S 757 mmHg 91%
    01:00 +17°C° 0 mm 3 m/S 757 mmHg 91%
    02:00 +17°C° 0 mm 4 m/S 756 mmHg 91%
    03:00 +17°C° 0 mm 4 m/S 756 mmHg 90%
    04:00 +15°C° 0 mm 4 m/S 756 mmHg 90%
    05:00 +16°C° 0 mm 3 m/S 756 mmHg 90%
    06:00 +16°C° 0 mm 3 m/S 756 mmHg 90%
    07:00 +16°C° 0.1 mm 3 m/S 756 mmHg 90%
    08:00 +16°C° 0.1 mm 3 m/S 757 mmHg 89%
    09:00 +16°C° 0.1 mm 3 m/S 757 mmHg 89%
    10:00 +17°C° 0 mm 3 m/S 757 mmHg 86%
    11:00 +17°C° 0 mm 3 m/S 757 mmHg 82%
    12:00 +17°C° 0 mm 3 m/S 757 mmHg 78%
    13:00 +17°C° 0 mm 3 m/S 758 mmHg 76%
    14:00 +18°C° 0 mm 3 m/S 758 mmHg 74%
    15:00 +18°C° 0 mm 3 m/S 758 mmHg 71%
    16:00 +17°C° 0 mm 3 m/S 758 mmHg 72%
    17:00 +17°C° 0 mm 2 m/S 758 mmHg 72%
    18:00 +16°C° 0 mm 2 m/S 758 mmHg 72%
    19:00 +15°C° 0 mm 2 m/S 758 mmHg 74%
    20:00 +14°C° 0 mm 2 m/S 759 mmHg 76%
    21:00 +12°C° 0 mm 3 m/S 760 mmHg 78%
    22:00 +12°C° 0 mm 2 m/S 760 mmHg 81%
    23:00 +10°C° 0 mm 2 m/S 760 mmHg 84%

    übermorgen, 17 September, Dienstag

    Zeit Temperatur Niederschläge Wind Luftdruck Luftfeuchtigkeit
    00:00 +9°C° 0 mm 2 m/S 760 mmHg 87%
    01:00 +9°C° 0 mm 2 m/S 760 mmHg 87%
    02:00 +9°C° 0 mm 2 m/S 760 mmHg 88%
    03:00 +8°C° 0 mm 2 m/S 760 mmHg 89%
    04:00 +8°C° 0 mm 2 m/S 760 mmHg 89%
    05:00 +8°C° 0 mm 2 m/S 760 mmHg 90%
    06:00 +8°C° 0 mm 2 m/S 760 mmHg 91%
    07:00 +9°C° 0 mm 2 m/S 760 mmHg 83%
    08:00 +12°C° 0 mm 2 m/S 761 mmHg 75%
    09:00 +14°C° 0 mm 2 m/S 761 mmHg 67%
    10:00 +15°C° 0 mm 2 m/S 761 mmHg 62%
    11:00 +16°C° 0 mm 2 m/S 761 mmHg 58%
    12:00 +17°C° 0 mm 2 m/S 761 mmHg 53%
    13:00 +17°C° 0 mm 3 m/S 761 mmHg 51%
    14:00 +17°C° 0 mm 3 m/S 761 mmHg 50%
    15:00 +18°C° 0 mm 3 m/S 760 mmHg 48%
    16:00 +16°C° 0 mm 2 m/S 760 mmHg 54%
    17:00 +15°C° 0 mm 2 m/S 760 mmHg 59%
    18:00 +14°C° 0 mm 2 m/S 760 mmHg 65%
    19:00 +13°C° 0 mm 2 m/S 761 mmHg 69%
    20:00 +12°C° 0 mm 2 m/S 761 mmHg 74%
    21:00 +10°C° 0 mm 2 m/S 761 mmHg 79%
    22:00 +10°C° 0 mm 1 m/S 761 mmHg 80%
    23:00 +10°C° 0 mm 1 m/S 761 mmHg 81%

    18 September, Mittwoch

    Zeit Temperatur Niederschläge Wind Luftdruck Luftfeuchtigkeit
    00:00 +10°C° 0 mm 1 m/S 761 mmHg 83%
    01:00 +10°C° 0 mm 1 m/S 761 mmHg 82%
    02:00 +10°C° 0 mm 1 m/S 761 mmHg 82%
    03:00 +10°C° 0 mm 1 m/S 761 mmHg 82%
    04:00 +10°C° 0 mm 1 m/S 761 mmHg 81%
    05:00 +10°C° 0 mm 1 m/S 761 mmHg 81%
    06:00 +10°C° 0 mm 1 m/S 761 mmHg 81%
    07:00 +12°C° 0 mm 2 m/S 762 mmHg 78%
    08:00 +13°C° 0 mm 2 m/S 762 mmHg 74%
    09:00 +14°C° 0 mm 2 m/S 762 mmHg 71%
    10:00 +14°C° 0 mm 2 m/S 762 mmHg 71%
    11:00 +15°C° 0 mm 2 m/S 762 mmHg 70%
    12:00 +15°C° 0 mm 2 m/S 762 mmHg 70%
    13:00 +16°C° 0 mm 2 m/S 762 mmHg 71%
    14:00 +16°C° 0 mm 2 m/S 762 mmHg 71%
    15:00 +16°C° 0 mm 2 m/S 761 mmHg 72%
    16:00 +16°C° 0 mm 2 m/S 762 mmHg 77%
    17:00 +15°C° 0 mm 2 m/S 762 mmHg 82%
    18:00 +14°C° 0 mm 2 m/S 762 mmHg 86%
    19:00 +14°C° 0 mm 2 m/S 762 mmHg 87%
    20:00 +14°C° 0 mm 2 m/S 763 mmHg 88%
    21:00 +13°C° 0 mm 2 m/S 763 mmHg 89%
    22:00 +13°C° 0 mm 2 m/S 763 mmHg 89%
    23:00 +12°C° 0 mm 3 m/S 764 mmHg 90%

    19 September, Donnerstag

    Zeit Temperatur Niederschläge Wind Luftdruck Luftfeuchtigkeit
    00:00 +11°C° 0 mm 3 m/S 764 mmHg 90%
    01:00 +11°C° 0 mm 3 m/S 764 mmHg 90%
    02:00 +10°C° 0 mm 3 m/S 764 mmHg 90%
    03:00 +10°C° 0 mm 2 m/S 764 mmHg 90%
    04:00 +9°C° 0 mm 2 m/S 764 mmHg 90%
    05:00 +8°C° 0 mm 2 m/S 765 mmHg 90%
    06:00 +7°C° 0 mm 2 m/S 765 mmHg 89%
    07:00 +9°C° 0 mm 3 m/S 765 mmHg 82%
    08:00 +10°C° 0 mm 3 m/S 766 mmHg 75%
    09:00 +12°C° 0 mm 3 m/S 766 mmHg 68%
    10:00 +13°C° 0 mm 3 m/S 766 mmHg 62%
    11:00 +14°C° 0 mm 3 m/S 766 mmHg 55%
    12:00 +16°C° 0 mm 3 m/S 766 mmHg 49%
    13:00 +16°C° 0 mm 3 m/S 766 mmHg 48%
    14:00 +16°C° 0 mm 3 m/S 766 mmHg 47%
    15:00 +17°C° 0 mm 3 m/S 766 mmHg 46%
    16:00 +14°C° 0 mm 3 m/S 766 mmHg 52%
    17:00 +13°C° 0 mm 3 m/S 766 mmHg 59%
    18:00 +12°C° 0 mm 3 m/S 766 mmHg 66%
    19:00 +11°C° 0 mm 3 m/S 766 mmHg 69%
    20:00 +10°C° 0 mm 3 m/S 767 mmHg 73%
    21:00 +9°C° 0 mm 3 m/S 767 mmHg 77%
    22:00 +9°C° 0 mm 2 m/S 767 mmHg 78%
    23:00 +8°C° 0 mm 2 m/S 767 mmHg 79%

    20 September, Freitag

    Zeit Temperatur Niederschläge Wind Luftdruck Luftfeuchtigkeit
    00:00 +8°C° 0 mm 2 m/S 767 mmHg 80%
    01:00 +9°C° 0 mm 1 m/S 767 mmHg 80%
    02:00 +9°C° 0 mm 1 m/S 766 mmHg 81%
    03:00 +8°C° 0 mm 1 m/S 766 mmHg 81%
    04:00 +8°C° 0 mm 1 m/S 766 mmHg 82%
    05:00 +8°C° 0 mm 1 m/S 765 mmHg 82%
    06:00 +7°C° 0 mm 1 m/S 765 mmHg 83%
    07:00 +9°C° 0 mm 1 m/S 765 mmHg 76%
    08:00 +11°C° 0 mm 1 m/S 765 mmHg 69%
    09:00 +13°C° 0 mm 2 m/S 765 mmHg 62%
    10:00 +14°C° 0 mm 2 m/S 764 mmHg 58%
    11:00 +16°C° 0 mm 3 m/S 764 mmHg 54%
    12:00 +17°C° 0 mm 3 m/S 764 mmHg 50%
    13:00 +18°C° 0 mm 3 m/S 763 mmHg 50%
    14:00 +18°C° 0 mm 3 m/S 762 mmHg 49%
    15:00 +18°C° 0 mm 3 m/S 761 mmHg 49%
    16:00 +17°C° 0 mm 3 m/S 761 mmHg 55%
    17:00 +16°C° 0 mm 3 m/S 760 mmHg 61%
    18:00 +15°C° 0 mm 2 m/S 760 mmHg 67%
    19:00 +13°C° 0 mm 3 m/S 759 mmHg 69%
    20:00 +11°C° 0 mm 3 m/S 759 mmHg 72%
    21:00 +10°C° 0 mm 3 m/S 759 mmHg 74%
    22:00 +10°C° 0 mm 3 m/S 758 mmHg 73%
    23:00 +10°C° 0 mm 3 m/S 757 mmHg 73%
    Mehr zeigen